Weather in Novoshakhtinsky

Russia / Primorsky Krai     44°01′36″N   132°10′01″E
temp.,
°C
wind,
m/s
gust,
m/s
humid.,
%
clouds,
%
prec.,
mm/h
press.,
hPa
HPBL,
m
15 may, sat
sat1501:00+14s71857100 0.0 1010641
04:00+14ssw91969100 0.0 1009781
07:00+14ssw81976100 0.0 1008632
10:00+17s111871100 0.0 1007661
13:00+20ssw12166675 0.0 1006864
16:00+21ssw10156797 0.0 1004762
19:00+13nw61093100 5.2 1009596
22:00+11wsw1291100 10.5 1011307
16 may, sun
sun1601:00+10sse1292100 0.8 1011140
04:00+10s008861 0.8 101014
07:00+10s1185100 0.0 101028
10:00+15w116497 0.0 1009445
13:00+19nnw2347100 0.0 10081331
16:00+20e3344100 0.0 10061027
19:00+17ese2467100 0.0 100692
22:00+13sse225884 0.0 100610
17 may, mon
mon1701:00+11s226289 0.0 100713
04:00+10s22721 0.0 100613
07:00+11s237429 0.0 100652
10:00+17w23535 0.0 1006441
13:00+21nne24405 0.0 10061518
16:00+22e334093 0.0 1005988
19:00+19e2462100 0.0 100577
22:00+15se2254100 0.0 100711
18 may, tue
tue1801:00+14se2255100 0.0 100611
04:00+13sse2258100 0.0 100612
07:00+13s2263100 0.0 100618
10:00+18ssw4852100 0.0 1006456
13:00+20ssw81148100 0.0 1005897
16:00+19s91352100 0.0 1004730
19:00+14s71673100 0.5 1004503
22:00+12s6157894 1.9 1005451
19 may, wed
wed1901:00+11ssw71776100 0.0 1006493
04:00+11ssw6137884 0.0 1005340
07:00+11ssw310868 0.0 1006274
10:00+18sw4665100 0.0 1007464
13:00+22sw44550 0.0 1007618
16:00+26ssw33473 0.0 1005737
19:00+23ssw24658 0.0 1006100
22:00+16s22791 0.3 100812